Terminal Aerodrome Forecast
Issued by NWS

Home | Current Version | Previous Version | Graphics & Text | Print | Product List | Glossary On
Versions: 1 2 3 4 5 6 7 8 9 10 11 12 13 14 15 16 17 18 19 20 21 22 23 24
710
FTUS43 KLOT 232320
TAFORD
TAF
KORD 232320Z 2400/2506 09010KT P6SM SKC
     FM240030 06011KT P6SM FEW250
     FM240300 07006KT P6SM FEW250
     FM241500 12011KT P6SM FEW250
     FM242200 09011KT P6SM FEW250
     FM250100 12009KT P6SM FEW250=

USA.gov is the U.S. government's official web portal to all federal, state and local government web resources and services.